Location: Cluj-Napoca
(46.7712°N, 23.6236°E)
Time: 05:59:21
(UTC+03:00)

ISS - Pass Details

Date: 30 March 2020
Orbit: 417 x 423 km, 51.6° (Epoch: 29 March)

Event Time Altitude Azimuth Distance (km) Brightness Sun altitude
Rises 20:20:44 0° 288° (WNW) 2,361 2.7 -5.6°
Reaches altitude 10° 20:22:57 10° 297° (WNW) 1,497 0.6 -6.0°
Maximum altitude 20:26:05 35° 6° (N) 694 -2.6 -6.5°
Drops below altitude 10° 20:29:12 10° 74° (ENE) 1,497 -1.5 -7.0°
Enters shadow 20:29:45 - 77° (ENE) 1,706 -1.2 -7.1°
